Location: Hiram
(41.3130°N, 81.1440°W)
Time: 13:04:06
(UTC-04:00)

Daily predictions for brighter satellites

Satellite Brightness Start Highest point End
(mag) Time Altitude Azimuth Time Altitude Azimuth Time Altitude Azimuth
ATLAS CENTAUR R/B 3.5 19:27:22 10° SSW 19:31:50 56° ESE 19:45:14 10° NE
Cosmos 2333 Rocket 3.6 19:29:39 10° SW 19:35:07 43° WNW 19:40:38 10° NNE
Okean 3 Rocket 3.6 19:31:35 10° N 19:36:08 77° E 19:40:40 10° SSE
SAR-Lupe-1 4.4 19:32:56 10° SE 19:36:20 43° ENE 19:39:43 10° N
SJ-6B 3.2 19:34:00 10° SE 19:37:49 45° ENE 19:41:43 10° N
Helios 1A 4.1 19:37:43 10° ESE 19:41:10 25° ENE 19:44:37 10° NNE
FREGAT/IRIS 3.4 19:38:27 10° SE 19:41:15 32° ENE 19:44:03 10° N
Resurs 01 Rocket 2.4 19:39:00 10° SE 19:42:54 31° ENE 19:46:48 10° N
NOSS 3-2 (A) 3.5 19:39:41 10° SSW 19:45:43 83° ESE 19:52:20 10° NE
Cosmos 1758 4.0 19:46:28 10° SSE 19:50:09 34° E 19:53:53 10° NNE
Cosmos 1452 Rocket 3.7 19:45:27 10° N 19:50:36 51° ENE 19:55:41 10° SE
Cosmos 1484 Rocket 3.4 19:48:47 10° S 19:52:33 60° W 19:56:26 10° NNW
Timation 1 Rocket 4.3 19:49:08 10° NNW 19:55:08 86° ENE 20:01:06 10° SSE
ATLAS 5 CENTAUR R/B 1.8 19:50:44 10° SSW 19:55:26 67° ESE 20:00:33 10° NE
Abrixas 3.6 19:53:14 10° SSW 19:55:49 26° SE 19:57:41 15° E
Cosmos 2237 Rocket 3.9 19:50:43 10° WSW 19:55:54 35° WNW 20:01:05 10° N
Cosmos 1437 4.3 19:52:59 10° NNW 19:56:07 41° W 19:59:11 10° SSW
Nadezhda 4 Rocket 4.5 19:53:56 10° N 19:59:44 38° ENE 20:05:27 10° SE
Cosmos 1346 4.2 19:58:32 10° NNE 20:00:59 23° ENE 20:02:37 15° ESE
Cosmos 1072 Rocket 4.4 19:56:21 10° S 20:02:27 84° E 20:08:36 10° N
COSMO-SKYMED 1 3.7 19:58:16 10° N 20:02:28 49° WNW 20:06:38 10° SSW
Meteor 1-21 Rocket 4.3 20:02:02 10° N 20:07:27 51° ENE 20:12:49 10° SSE
ASTEX 1 4.1 20:07:19 10° NNE 20:11:37 30° E 20:15:52 10° SSE
Cosmos 1420 Rocket 4.4 20:06:38 10° N 20:11:43 44° ENE 20:16:34 11° SE
Cosmos 1766 4.2 20:09:22 10° SSW 20:13:13 52° W 20:17:09 10° N
SL-16 R/B 3.1 20:11:05 10° SW 20:16:38 53° WNW 20:22:12 10° NNE
CENTAUR R/B 3.2 20:12:20 10° S 20:17:28 30° ESE 20:23:05 10° NE
Helios 1B rocket 2.4 20:13:55 10° NNE 20:18:01 62° ESE 20:22:04 10° S
Cosmos 1544 3.3 20:15:45 10° S 20:19:21 49° E 20:22:59 10° NNE
METEOR-M 4.1 20:15:25 10° SSE 20:20:46 88° ENE 20:26:10 10° NNW
Cosmos 1766 Rocket 3.6 20:17:20 10° N 20:21:43 81° W 20:26:03 10° S
NOSS 3-2 (C) 3.8 20:18:42 10° SW 20:24:45 69° NW 20:31:25 10° NNE
CZ-2D R/B 3.9 20:24:44 25° ESE 20:26:12 35° ENE 20:29:45 10° N
Spot 1 4.4 20:22:36 10° S 20:27:20 76° WSW 20:31:50 10° NNW
Cosmos 1076 Rocket 4.2 20:23:06 10° NNW 20:27:21 56° W 20:31:36 10° S
OAO 3 Rocket 4.0 20:23:13 10° WSW 20:27:38 38° S 20:30:04 23° SE
Spot 2 Rocket 3.5 20:22:46 10° SSE 20:27:48 88° WSW 20:32:52 10° NNW
Cosmos 1048 Rocket 4.1 20:25:43 10° S 20:30:51 53° ESE 20:35:58 10° NNE
Cosmos 1269 Rocket 4.0 20:26:10 10° S 20:31:22 63° ESE 20:36:36 10° NNE
FENGYUN 3A 3.7 20:29:13 10° SSE 20:34:28 60° ENE 20:39:46 10° N
Cosmos-2242 3.1 20:30:20 10° S 20:34:41 80° W 20:39:06 10° N
Cosmos 2034 Rocket 4.2 20:31:06 10° SSW 20:37:21 77° W 20:43:43 10° N
Envisat 4.5 20:39:20 19° ENE 20:39:20 19° ENE 20:42:32 10° NNE
H-2A R/B 2.9 20:39:09 36° SE 20:40:18 50° ENE 20:44:04 10° N
Gbstr 26 Del rocket 3.7 20:37:33 10° SSW 20:41:43 40° SE 20:42:57 34° E
Cosmos 1805 4.0 20:38:09 10° SSW 20:41:59 54° W 20:45:52 10° N
Cosmos 2151 4.0 20:39:38 10° NNE 20:42:41 28° ENE 20:42:41 28° ENE
Cosmos 1953 3.2 20:39:29 10° SSW 20:43:22 51° W 20:47:15 10° N
ISS -3.1 20:41:12 10° SW 20:44:06 51° SSE 20:44:06 51° SSE
ALOS 2.1 20:42:16 13° SSE 20:46:23 79° ENE 20:51:04 10° N
BREEZE-M DEB (TANK) 3.9 20:35:46 10° W 20:49:41 61° N 20:52:04 31° ENE
Cosmos 1842 Rocket 3.4 20:50:07 10° S 20:54:25 79° E 20:58:48 10° N
Cosmos 1500 Rocket 3.4 20:50:26 10° N 20:54:53 80° E 20:57:01 30° SSE
Cosmos 158 Rocket 3.9 20:51:17 10° S 20:56:00 51° ESE 21:00:44 10° NNE
USA 215 3.3 20:50:38 10° NE 20:57:12 84° NW 21:03:44 10° SW
Cosmos 1943 Rocket 3.3 20:53:22 10° N 20:58:04 26° NE 20:58:07 26° NE
Cosmos 2369 Rocket 2.3 20:52:38 10° NNW 20:58:13 57° ENE 20:59:45 43° ESE
Cosmos 1943 3.1 20:53:21 10° S 20:58:51 58° ESE 21:04:22 10° NNE
GPS 2-04 Rocket1 4.0 20:56:03 10° SW 20:58:12 24° SSW 20:58:12 24° SSW
Cosmos 1603 4.3 20:58:28 10° SW 21:04:05 57° WNW 21:09:47 10° NNE
Cosmos 2263 4.5 20:59:41 10° NNW 21:05:17 47° ENE 21:06:00 45° E
Cosmos 1470 2.8 21:01:34 10° SSW 21:05:27 76° W 21:09:20 10° N
Cosmos 1733 3.1 21:08:47 84° NW 21:08:47 84° NW 21:12:35 10° N
Cosmos 1627 Rocket 4.4 21:03:09 10° N 21:09:18 61° E 21:11:13 43° SE
SL-8 R/B 3.6 21:06:38 10° WSW 21:11:26 81° NNW 21:12:16 60° NE
SeaSat 1 3.3 21:15:13 34° S 21:15:13 34° S 21:18:04 10° SSW
ERS-1 Rocket 3.6 21:15:21 41° NE 21:15:21 41° NE 21:19:17 10° N
CZ-4B DEB 4.2 21:14:31 35° WSW 21:14:53 37° W 21:17:58 10° NNW
Resurs 01 Rocket 3.8 21:15:43 10° SSW 21:19:21 25° W 21:23:01 10° NW
Cosmos 1674 3.8 21:16:37 10° NNW 21:20:19 43° W 21:21:24 34° SW
Cosmos 1110 Rocket 4.2 21:17:32 10° NNW 21:22:20 56° NE 21:22:20 56° NE
Meteor 1-16 Rocket 4.1 21:36:59 73° N 21:36:59 73° N 21:41:48 10° N
Meteor 1-11 4.1 21:34:15 10° N 21:40:05 90° ENE 21:40:07 89° SSE
ATLAS 5 CENTAUR R/B 4.2 21:36:55 10° W 21:40:40 21° NW 21:44:42 10° NNE
Cosmos 839 Rocket 4.2 21:35:33 10° NNW 21:43:07 78° WSW 21:44:15 63° S
GP-B 4.1 21:41:31 10° N 21:45:44 44° W 21:45:48 44° W
Cosmos 2279 Rocket 3.9 21:46:27 74° NNE 21:46:27 74° NNE 21:52:06 10° N
Cosmos 1655 Rocket 4.0 21:49:23 10° N 21:55:36 73° W 21:55:58 71° SW
CENTAUR R/B 3.2 22:01:45 10° WSW 22:07:42 51° NW 22:14:26 10° NNE
Envisat 4.5 22:19:33 33° NW 22:19:33 33° NW 22:22:33 10° NNW
Cosmos 2369 Rocket 4.3 22:37:44 10° NW 22:41:35 20° W 22:41:35 20° W
Cosmos 1943 Rocket 3.9 22:36:41 10° NW 22:39:38 29° NW 22:39:38 29° NW
